Flag for U.S.A. Weather past 2 weeks in Sitka, Alaska, U.S.A.

Now
39 °F

Light rain. Mostly cloudy.


Feels Like: 32 °F
Forecast: 41 / 47 °F
Wind: 10 mph from East

Location: Sitka Airport

Current Time: Mar 31, 2015 at 2:14:29 AM

Latest Report: Mar 31, 2015 at 1:53 AM


Visibility: 10 mi

Pressure: 29.59 "Hg

Humidity: 89%

Dew point: 36 °F

Location of SitkaLocation

Historic Weather in Sitka — Graph

°F

Sitka temperature yesterday

Maximum temperature yesterday: 50 °F (at 1:53 PM)
Minimum temperature yesterday: 41 °F (at 10:53 PM)
Average temperature yesterday: 45 °F

Past Weeks' High & Low Weather Summary

 TemperatureHumidityPressure
High50 °F (Mar 17, 11:53 AM)100% (Mar 22, 12:53 AM)30.11 "Hg (Mar 22, 12:53 AM)
Low31 °F (Mar 16, 2:53 AM)33% (Mar 16, 2:53 PM)29.44 "Hg (Mar 30, 4:53 PM)
Average44 °F72%29.81 "Hg
* Reported Mar 16 12:53 AM — Mar 31 12:53 AM, Sitka, Weather by CustomWeather, © 2015

Note: Actual official high and low records may vary slightly from our data, if they occured in-between our weather recording intervals... More about our weather records

Advertising

Sitka weather history for previous 24 hours

 ConditionsComfort  
Time TempWeatherWind HumidityBarometerVisibility
12:53 AM
Tue, Mar 31
40 °FRain. Fog.10 mph89%29.57 "Hg5 mi
11:53 PM
Mon, Mar 30
41 °FLight rain. Fog.7 mph86%29.55 "Hg6 mi
10:53 PM41 °FLight rain. Mostly cloudy.6 mph86%29.53 "Hg10 mi
10:03 PM43 °FLight rain. Mostly cloudy.10 mph76%29.52 "Hg10 mi
9:53 PM43 °FLight rain. Mostly cloudy.10 mph74%29.51 "Hg10 mi
8:53 PM43 °FMostly cloudy.14 mph74%29.49 "Hg10 mi
7:53 PM44 °FOvercast.13 mph71%29.47 "Hg10 mi
6:53 PM46 °FOvercast.14 mph63%29.46 "Hg10 mi
5:53 PM47 °FMostly cloudy.9 mph54%29.45 "Hg10 mi
4:53 PM49 °FOvercast.6 mph50%29.44 "Hg10 mi
3:53 PM49 °FMore clouds than sun.No wind57%29.45 "Hg10 mi
2:53 PM48 °FMostly cloudy.5 mph66%29.46 "Hg10 mi
1:53 PM50 °FOvercast.No wind57%29.47 "Hg10 mi
12:53 PM47 °FOvercast.9 mph69%29.51 "Hg10 mi
11:53 AM46 °FOvercast.8 mph73%29.54 "Hg10 mi
10:53 AM45 °FOvercast.6 mph76%29.57 "Hg10 mi
9:53 AM43 °FOvercast.9 mph82%29.60 "Hg10 mi
8:53 AM43 °FPartly sunny.7 mph79%29.62 "Hg10 mi
7:53 AM45 °FPartly sunny.5 mph65%29.65 "Hg10 mi
6:53 AM43 °FPassing clouds.9 mph68%29.67 "Hg10 mi
5:53 AM44 °FPassing clouds.10 mph68%29.69 "Hg10 mi
4:53 AM45 °FPassing clouds.14 mph68%29.72 "Hg10 mi
3:53 AM44 °FPassing clouds.13 mph73%29.75 "Hg10 mi
2:53 AM44 °FPassing clouds.13 mph73%29.78 "Hg10 mi
Weather by CustomWeather, © 2015

See weather overviewHow to use our weather pages